Valle Toledo, Valles Caldera, New Mexico Weather observations

Data are for 10 minute period ending at time listed.
 Day   Time   Solar   Ave.   Ave.  Ave.  Vector  Max.   Baro.   Total    
  of    of     Rad.   Air    Rel.  Wind   Wind   Wind  Press.  Precip.   
Year   Day            Temp.  Hum.  Speed  Dir.   Gust                    
2026   (MST)  Kw/m2    F      %     mph   deg.    mph    mb.     in.     
-------------------------------------------------------------------------
 242   22:30   0.00   58.9    51    0.0     0     0.0   737.2    0.00 
 242   22:40   0.00   58.9    51    0.0     0     0.0   737.4    0.00 
 242   22:50   0.00   59.5    47    3.2   166     9.6   737.4    0.00 
 242   23:00   0.00   59.4    49    5.4   170    12.5   737.4    0.00 
 242   23:10   0.00   58.7    52    1.8   174     9.6   737.3    0.00 
 242   23:20   0.00   58.7    52    0.0     0     0.0   737.3    0.00 
 242   23:30   0.00   59.2    51    0.0     0     0.0   737.5    0.00 
 242   23:40   0.00   58.3    54    0.0     0     0.0   737.5    0.00 
 242   23:50   0.00   57.7    56    0.0     0     0.0   737.5    0.00 
 243    0:00   0.00   57.2    57    0.0     0     0.0   737.5    0.00 
 243    0:10   0.00   56.9    58    0.0     0     0.0   737.6    0.00 
 243    0:20   0.00   56.8    58    0.0     0     0.0   737.6    0.00 
 243    0:30   0.00   57.1    58    0.0     0     0.0   737.6    0.00 
 243    0:40   0.00   57.6    56    0.0     0     0.0   737.5    0.00 
 243    0:50   0.00   58.4    54    0.0     0     0.0   737.4    0.00 
 243    1:00   0.00   58.4    54    0.0     0     0.0   737.3    0.00 
 243    1:10   0.00   57.6    56    0.0     0     0.0   737.3    0.00 
 243    1:20   0.00   58.0    55    0.0     0     0.0   737.3    0.00 
 243    1:30   0.00   58.5    52    0.0     0     0.0   737.3    0.00 
 243    1:40   0.00   58.7    50    0.0     0     0.0   737.2    0.00 
 243    1:50   0.00   58.3    52    1.9   158    13.7   737.2    0.00 
 243    2:00   0.00   58.0    52    0.1   152     6.0   737.4    0.00 
 243    2:10   0.00   57.9    52    0.0     0     0.0   737.4    0.00 
 243    2:20   0.00   57.8    52    0.0     0     0.0   737.3    0.00 
 243    2:30   0.00   57.9    52    0.0     0     0.0   737.4    0.00 
 243    2:40   0.00   57.9    52    0.0     0     0.0   737.3    0.00 
 243    2:50   0.00   57.9    52    0.0     0     0.0   737.3    0.00 
 243    3:00   0.00   58.2    52    0.0     0     0.0   737.4    0.00 
 243    3:10   0.00   57.8    52    0.0     0     0.0   737.5    0.00 
 243    3:20   0.00   58.1    52    0.0     0     0.0   737.5    0.00 
 243    3:30   0.00   58.3    51    0.0     0     0.0   737.5    0.00 
 243    3:40   0.00   57.9    52    1.4   152    10.8   737.3    0.00 
 243    3:50   0.00   57.3    54    8.0   154    22.1   737.1    0.00 
 243    4:00   0.00   56.9    55    7.8   152    14.9   737.1    0.00 
 243    4:10   0.00   56.6    56    7.7   139    13.1   737.4    0.00 
 243    4:20   0.00   56.2    57    3.7   116     9.0   737.8    0.00 
 243    4:30   0.00   55.9    59    2.2   116     5.4   738.3    0.00 
 243    4:40   0.00   55.8    60    0.0    88     3.0   738.4    0.00 
 243    4:50   0.00   55.1    63    5.3   116    13.1   738.4    0.00 
 243    5:00   0.00   54.3    66    4.8   118    10.8   738.3    0.00 
 243    5:10   0.00   53.5    69    1.2   107     6.0   738.1    0.00 
 243    5:20   0.00   53.3    69    2.4   152     6.0   738.0    0.00 
 243    5:30   0.00   53.6    68    4.6   147     9.6   738.1    0.00 
 243    5:40   0.01   53.7    68    0.4   131     6.6   738.1    0.00 
 243    5:50   0.01   52.9    72    0.0     0     0.0   738.2    0.00 
 243    6:00   0.01   51.9    75    0.0     0     0.0   738.3    0.00 
 243    6:10   0.01   52.2    72    0.0     0     0.0   738.5    0.00 
 243    6:20   0.01   52.8    72    0.0     0     0.0   738.6    0.00 
 243    6:30   0.04   52.4    75    0.0     0     0.0   738.6    0.00 
 243    6:40   0.09   53.2    74    0.0     0     0.0   738.5    0.00 
 243    6:50   0.18   54.8    67    0.0     0     0.0   738.7    0.00 
 243    7:00   0.22   58.3    55    0.5   145     6.0   738.6    0.00 
 243    7:10   0.16   59.4    51    0.1   123     4.8   738.4    0.00 
 243    7:20   0.17   59.6    50    0.0     0     0.0   738.4    0.00 
 243    7:30   0.34   60.8    47    0.0     0     0.0   738.2    0.00 
 243    7:40   0.31   62.5    44    0.0     0     0.0   738.2    0.00 
 243    7:50   0.31   63.5    42    0.0     0     0.0   738.1    0.00 
 243    8:00   0.37   64.6    40    0.0     0     0.0   738.0    0.00 
 243    8:10   0.29   64.5    42    0.0     0     0.0   737.9    0.00 
 243    8:20   0.33   63.9    44    0.0     0     0.0   737.8    0.00 
 243    8:30   0.35   64.5    41    0.0     0     0.0   737.7    0.00 
 243    8:40   0.31   64.4    43    0.0     0     0.0   737.3    0.00 
 243    8:50   0.42   64.9    42    0.0     0     0.0   737.4    0.00 
 243    9:00   0.35   65.6    40    0.0     0     0.0   737.4    0.00 
 243    9:10   0.34   65.3    39    0.0     0     0.0   737.4    0.00 
 243    9:20   0.48   66.9    36    0.0     0     0.0   737.6    0.00 
 243    9:30   0.39   67.3    37    0.0     0     0.0   737.7    0.00 
 243    9:40   0.53   68.8    36    0.0     0     0.0   737.8    0.00 
 243    9:50   0.28   68.8    37    0.0     0     0.0   737.8    0.00 
 243   10:00   0.31   67.8    39    0.0     0     0.0   737.8    0.00 
 243   10:10   0.54   68.0    40    0.0     0     0.0   737.8    0.00 
 243   10:20   0.29   69.0    37    0.0     0     0.0   737.7    0.00 
 243   10:30   0.07   66.0    45    0.0     0     0.0   738.1    0.06 
 243   10:40   0.32   62.1    59    0.0     0     0.0   738.4    0.02 
 243   10:50   0.52   61.8    67    0.0     0     0.0   738.6    0.00 
 243   11:00   0.73   63.6    64    0.0     0     0.0   738.6    0.00 
 243   11:10   0.51   64.0    60    0.0     0     0.0   738.5    0.00 
 243   11:20   0.42   62.5    60    0.0     0     0.0   738.5    0.00 
 243   11:30   0.60   62.7    61    0.0     0     0.0   738.4    0.00 
 243   11:40   0.58   63.3    61    0.0     0     0.0   738.4    0.00 
 243   11:50   0.57   63.8    60    0.0     0     0.0   738.3    0.00 
 243   12:00   0.59   64.2    60    0.0     0     0.0   738.1    0.00 
 243   12:10   0.56   64.2    59    0.0     0     0.0   738.0    0.00 
 243   12:20   0.57   64.1    58    0.2    59     7.8   737.9    0.00 
 243   12:30   0.69   64.9    57    4.3    67    13.1   738.0    0.00 
 243   12:40   1.08   67.6    54    2.6    49     8.4   737.8    0.00 
 243   12:50   0.74   68.0    50    0.0     0     0.0   737.6    0.00 
 243   13:00   0.59   66.8    51    0.0     0     0.0   737.5    0.00 
 243   13:10   0.85   68.1    49    2.2   353     8.4   737.4    0.00 
 243   13:20   0.78   68.8    47    1.3    43    10.2   737.2    0.00 
 243   13:30   0.63   68.9    47    0.0     0     0.0   737.0    0.00 
 243   13:40   0.34   68.5    47    0.0     0     0.0   737.0    0.00 
 243   13:50   0.60   67.4    50    0.0     0     0.0   737.0    0.00 
 243   14:00   0.43   67.6    49    0.0     0     0.0   737.0    0.00 
 243   14:10   0.53   67.4    50    0.6    98     7.2   737.0    0.00 
 243   14:20   0.71   69.5    48    0.0     0     0.0   736.9    0.00 
 243   14:30   0.69   69.5    46    0.0     0     0.0   736.7    0.00 
 243   14:40   0.76   70.2    45    0.0     0     0.0   736.6    0.00 
 243   14:50   0.34   69.1    46    0.0     0     0.0   736.6    0.00 
 243   15:00   0.17   67.6    48    0.0     0     0.0   736.5    0.00 
 243   15:10   0.20   66.9    49    0.0     0     0.0   736.5    0.00 
 243   15:20   0.23   67.2    47    0.0     0     0.0   736.5    0.00 
 243   15:30   0.15   67.0    48    0.0     0     0.0   736.4    0.00 
 243   15:40   0.38   67.3    48    0.0    41     1.2   736.4    0.00 
 243   15:50   0.44   68.5    48    6.0    77    16.1   736.3    0.00 
 243   16:00   0.29   66.3    51    6.6    89    15.5   736.3    0.00 
 243   16:10   0.42   65.2    53    9.1    83    19.7   736.2    0.00 
 243   16:20   0.49   65.9    53    8.8    85    18.5   736.3    0.00 
 243   16:30   0.50   65.6    54    8.3    86    17.3   736.2    0.00 
 243   16:40   0.47   65.1    55    8.7    89    15.5   736.3    0.00 
 243   16:50   0.45   65.1    55    6.1    79    13.1   736.5    0.00 
 243   17:00   0.38   65.0    55    2.4    72    12.5   737.0    0.00 
 243   17:10   0.21   63.2    58    4.3    69    10.8   737.2    0.00 
 243   17:20   0.13   61.5    61    3.9    90     8.4   737.3    0.00 
 243   17:30   0.08   60.5    62    4.3    90     9.0   737.3    0.00 
 243   17:40   0.07   60.2    62    0.0     0     0.0   737.4    0.00 
 243   17:50   0.03   59.7    61    0.0     0     0.0   737.4    0.00 
 243   18:00   0.02   59.3    63    0.0     0     0.0   737.4    0.00 
 243   18:10   0.01   59.2    62    0.0     0     0.0   737.4    0.00 
 243   18:20   0.01   59.0    62    0.0     0     0.0   737.3    0.00 
 243   18:30   0.01   58.6    63    0.0     0     0.0   737.4    0.00 
 243   18:40   0.00   58.2    65    0.0     0     0.0   737.4    0.00 
 243   18:50   0.00   57.6    67    0.0     0     0.0   737.5    0.00 
 243   19:00   0.00   57.2    67    0.0     0     0.0   737.4    0.00 
 243   19:10   0.00   56.9    68    0.0     0     0.0   737.4    0.00 
 243   19:20   0.00   56.7    68    0.0     0     0.0   737.2    0.00 
 243   19:30   0.00   56.3    69    0.0     0     0.0   737.2    0.00 
 243   19:40   0.00   55.9    70    0.0     0     0.0   737.2    0.00 
 243   19:50   0.00   55.0    72    0.0     0     0.0   737.3    0.00 
 243   20:00   0.00   54.4    74    0.0     0     0.0   737.4    0.00 
 243   20:10   0.00   54.4    74    0.0     0     0.0   737.5    0.00 
 243   20:20   0.00   54.1    74    0.0     0     0.0   737.6    0.00 
 243   20:30   0.00   53.9    74    0.0     0     0.0   737.6    0.00 
 243   20:40   0.00   54.2    74    0.0     0     0.0   737.6    0.00 
 243   20:50   0.00   54.2    74    0.0     0     0.0   737.8    0.00 
 243   21:00   0.00   54.0    75    0.0     0     0.0   737.8    0.00 
 243   21:10   0.00   53.9    76    0.0     0     0.0   737.8    0.00 
 243   21:20   0.00   53.8    76    0.0     0     0.0   737.8    0.00 
 243   21:30   0.00   54.2    76    0.0     0     0.0   737.8    0.00 
 243   21:40   0.00   54.5    76    0.0     0     0.0   737.8    0.00 
 243   21:50   0.00   55.6    73    0.0     0     0.0   737.8    0.00 
 243   22:00   0.00   56.4    70    0.0     0     0.0   737.7    0.00 
 243   22:10   0.00   56.6    70    0.0     0     0.0   737.7    0.00 
 243   22:20   0.00   55.7    73    0.0     0     0.0   737.7    0.00 

Return to Valle Toledo, Valles Caldera graphs page.


Western Regional Climate Center,wrcc@dri.edu